Location: Mesa Vista Observatory
(35.5777°N, 105.6987°W)
Time: 14:14:04
(UTC-06:00)

Envisat - Pass Details

Date: 19 June 2019
Orbit: 764 x 766 km, 98.1° (Epoch: 22 July)

Event Time Altitude Azimuth Distance (km) Brightness Sun altitude
Rises 20:53:45 0° 216° (SW) 3,215 6.2 -6.4°
Reaches altitude 10° 20:57:35 10° 245° (WSW) 2,295 5.9 -7.1°
Maximum altitude 20:59:35 12° 269° (W) 2,145 6.2 -7.4°
Drops below altitude 10° 21:01:35 10° 292° (WNW) 2,301 7.0 -7.7°
Sets 21:05:27 0° 322° (NW) 3,233 8.0 -8.3°
